This demonstration page uses our WeatherBlox Daily Observations layout. Learn more.

Hourly Observations for January 9, 2020

Temp ( °F °C ) Dew Point ( °F °C ) Humidity (%) Winds ( mph kmh ) Pressure ( in mb ) Visibility ( mi km ) Precip ( " mm )
12:15 am 00:15 Clear 25 -4 21 -6 86 86 ESE 9 15 30.44 1031 10 16.0934 N/A
12:36 am 00:36 Clear 27 -3 21 -6 80 80 ESE 8 13 30.45 1031 10 16.0934 N/A
12:55 am 00:55 Clear 25 -4 21 -6 86 86 ESE 10 17 30.44 1031 10 16.0934 N/A
1:15 am 01:15 Clear 25 -4 21 -6 86 86 ESE 10 17 30.43 1030 10 16.0934 N/A
1:35 am 01:35 Clear 25 -4 21 -6 86 86 ESE 10 17 30.43 1030 10 16.0934 N/A
1:56 am 01:56 Clear 27 -3 23 -5 86 86 ESE 10 17 30.43 1030 10 16.0934 N/A
2:15 am 02:15 Clear 25 -4 23 -5 93 93 ESE 10 17 30.43 1030 10 16.0934 N/A
2:36 am 02:36 Clear 27 -3 23 -5 86 86 ESE 9 15 30.43 1030 10 16.0934 N/A
2:55 am 02:55 Clear 27 -3 23 -5 86 86 SE 9 15 30.43 1030 10 16.0934 N/A
3:15 am 03:15 Clear 27 -3 21 -6 80 80 SE 10 17 30.43 1030 10 16.0934 N/A
3:35 am 03:35 Clear 27 -3 23 -5 86 86 SE 9 15 30.43 1030 10 16.0934 N/A
3:55 am 03:55 Clear 27 -3 23 -5 86 86 SE 9 15 30.42 1030 10 16.0934 N/A
4:15 am 04:15 Clear 27 -3 23 -5 86 86 SE 9 15 30.42 1030 10 16.0934 N/A
4:35 am 04:35 Clear 27 -3 21 -6 80 80 SE 10 17 30.41 1030 10 16.0934 N/A
4:56 am 04:56 Clear 27 -3 23 -5 86 86 SE 9 15 30.41 1030 10 16.0934 N/A
5:15 am 05:15 Clear 27 -3 21 -6 80 80 SE 9 15 30.41 1030 10 16.0934 N/A
5:35 am 05:35 Clear 27 -3 21 -6 80 80 SE 10 17 30.4 1029 10 16.0934 N/A
5:55 am 05:55 Clear 27 -3 23 -5 86 86 SE 13 20 30.4 1029 10 16.0934 N/A
6:16 am 06:16 Clear 27 -3 23 -5 86 86 SE 13 20 30.4 1029 10 16.0934 N/A
6:35 am 06:35 Clear 27 -3 23 -5 86 86 SE 13 20 30.39 1029 10 16.0934 N/A
6:56 am 06:56 Clear 27 -3 23 -5 86 86 SE 13 20 30.39 1029 10 16.0934 N/A
7:16 am 07:16 Clear 27 -3 23 -5 86 86 SE 12 19 30.38 1029 10 16.0934 N/A
7:35 am 07:35 Clear 27 -3 23 -5 86 86 SE 10 17 30.39 1029 10 16.0934 N/A
7:55 am 07:55 Clear 28 -2 23 -5 80 80 SSE 10 17 30.38 1029 10 16.0934 N/A
8:16 am 08:16 Sunny 28 -2 23 -5 80 80 SSE 12 19 30.37 1029 10 16.0934 N/A
8:36 am 08:36 Sunny 28 -2 23 -5 80 80 SSE 12 19 30.37 1029 10 16.0934 N/A
8:55 am 08:55 Sunny 30 -1 23 -5 75 75 SSE 14 22 30.36 1028 10 16.0934 N/A
9:15 am 09:15 Sunny 32 0 25 -4 75 75 SSE 15 24 30.37 1028 10 16.0934 N/A
9:35 am 09:35 Sunny 32 0 25 -4 75 75 SSE 15 24 30.36 1028 10 16.0934 N/A
9:56 am 09:56 Sunny 34 1 27 -3 75 75 SSE 16 26 30.35 1028 10 16.0934 N/A
10:16 am 10:16 Sunny 37 3 28 -2 70 70 SSE 12 19 30.34 1028 10 16.0934 N/A
10:35 am 10:35 Sunny 37 3 28 -2 70 70 S 15 24 30.34 1028 10 16.0934 N/A
10:56 am 10:56 Sunny 39 4 28 -2 65 65 S 14 22 30.34 1027 10 16.0934 N/A
11:15 am 11:15 Sunny 39 4 28 -2 65 65 SSE 13 20 30.33 1027 10 16.0934 N/A
11:35 am 11:35 Sunny 41 5 30 -1 66 66 SSE 14 22 30.32 1027 10 16.0934 N/A
11:55 am 11:55 Sunny 43 6 30 -1 61 61 S 14 22 30.29 1026 10 16.0934 N/A
12:16 pm 12:16 Sunny 45 7 32 0 61 61 S 13 20 30.27 1025 10 16.0934 N/A
12:36 pm 12:36 Sunny 46 8 32 0 57 57 S 17 28 30.24 1024 10 16.0934 N/A
12:56 pm 12:56 Sunny 46 8 32 0 57 57 S 16 26 30.23 1024 10 16.0934 N/A
1:15 pm 13:15 Sunny 48 9 32 0 54 54 S 15 24 30.2 1023 10 16.0934 N/A
1:35 pm 13:35 Sunny 48 9 32 0 54 54 S 15 24 30.19 1022 10 16.0934 N/A
1:55 pm 13:55 Sunny 48 9 34 1 58 58 S 15 24 30.18 1022 10 16.0934 N/A
2:15 pm 14:15 Sunny 48 9 34 1 58 58 S 12 19 30.17 1022 10 16.0934 N/A
2:36 pm 14:36 Sunny 50 10 34 1 54 54 S 14 22 30.17 1022 10 16.0934 N/A
2:55 pm 14:55 Sunny 50 10 34 1 54 54 S 10 17 30.15 1021 10 16.0934 N/A
3:16 pm 15:16 Sunny 52 11 36 2 54 54 S 12 19 30.15 1021 10 16.0934 N/A
3:36 pm 15:36 Sunny 52 11 34 1 50 50 S 12 19 30.15 1021 10 16.0934 N/A
3:56 pm 15:56 Sunny 52 11 32 0 47 47 S 17 28 30.14 1021 10 16.0934 N/A
4:15 pm 16:15 Sunny 52 11 34 1 50 50 SSW 9 15 30.16 1021 10 16.0934 N/A
4:35 pm 16:35 Sunny 52 11 34 1 50 50 SSW 12 19 30.16 1021 10 16.0934 N/A
4:55 pm 16:55 Sunny 50 10 34 1 54 54 S 10 17 30.15 1021 10 16.0934 N/A
5:15 pm 17:15 Sunny 50 10 34 1 54 54 S 10 17 30.15 1021 10 16.0934 N/A
5:36 pm 17:36 Partly Cloudy 50 10 34 1 54 54 S 12 19 30.15 1021 10 16.0934 N/A
5:55 pm 17:55 Mostly Cloudy 50 10 34 1 54 54 S 14 22 30.15 1021 10 16.0934 N/A
6:16 pm 18:16 Partly Cloudy 50 10 34 1 54 54 S 15 24 30.15 1021 10 16.0934 N/A
6:36 pm 18:36 Mostly Cloudy 50 10 34 1 54 54 S 15 24 30.14 1021 10 16.0934 N/A
6:56 pm 18:56 Cloudy 50 10 34 1 54 54 S 15 24 30.15 1021 10 16.0934 N/A
7:16 pm 19:16 Cloudy 52 11 34 1 50 50 S 16 26 30.15 1021 10 16.0934 N/A
7:35 pm 19:35 Cloudy 50 10 34 1 54 54 S 14 22 30.15 1021 10 16.0934 N/A
7:55 pm 19:55 Cloudy 52 11 34 1 50 50 S 17 28 30.13 1020 10 16.0934 N/A
8:16 pm 20:16 Cloudy 50 10 34 1 54 54 S 16 26 30.13 1020 10 16.0934 N/A
8:35 pm 20:35 Cloudy 50 10 36 2 58 58 WSW 13 20 30.17 1022 10 16.0934 N/A
8:55 pm 20:55 Cloudy 48 9 37 3 66 66 SW 13 20 30.17 1022 7 11.26538 N/A
9:16 pm 21:16 Cloudy 45 7 41 5 87 87 SSW 9 15 30.17 1022 7 11.26538 N/A
9:36 pm 21:36 Cloudy 45 7 43 6 93 93 SSW 6 9 30.16 1021 10 16.0934 N/A
9:56 pm 21:56 Cloudy 43 6 43 6 100 100 SW 3 6 30.16 1021 10 16.0934 N/A
10:15 pm 22:15 Cloudy 43 6 43 6 100 100 S 3 6 30.15 1021 10 16.0934 N/A
10:35 pm 22:35 Cloudy 43 6 43 6 100 100 Calm 30.15 1021 10 16.0934 N/A
10:55 pm 22:55 Cloudy 46 8 41 5 82 82 S 7 11 30.16 1021 10 16.0934 N/A
11:15 pm 23:15 Cloudy 46 8 43 6 87 87 SW 8 13 30.16 1021 10 16.0934 N/A
11:36 pm 23:36 Cloudy 45 7 43 6 93 93 S 5 7 30.14 1021 10 16.0934 N/A
11:55 pm 23:55 Cloudy 45 7 45 7 100 100 NW 14 22 30.17 1022 10 16.0934 N/A

Powered by AerisWeather